Weather History for Pittsburgh, PA

Change the Weather History Date:

Monday, October 29, 2012

  Actual Average Record
Temperature  
Mean Temperature 40 °F 49 °F  
Max Temperature 42 °F 58 °F 80 °F (1900)
Min Temperature 38 °F 39 °F 16 °F (1965)
Degree Days  
Heating Degree Days 25 16  
Month to date heating degree days 314 355  
Since 1 July heating degree days 446 469  
Cooling Degree Days 0 0  
Month to date cooling degree days 11 6  
Year to date cooling degree days 1025 734  
Moisture  
Dew Point 39 °F    
Average Humidity 88    
Maximum Humidity 93    
Minimum Humidity 82    
Precipitation  
Precipitation 1.72 in 0.08 in 1.72 in (2012)
Month to date precipitation 3.06 2.12  
Year to date precipitation 34.45 31.94  
Snow  
Snow 0.00 in 0.00 in 1.60 in (2011)
Month to date snowfall 0.0 0.3  
Since 1 July snowfall 0.0 0.3  
Snow Depth 0.00 in    
Sea Level Pressure  
Sea Level Pressure 29.64 in    
Wind  
Wind Speed 21 mph (NNW)    
Max Wind Speed 38 mph    
Max Gust Speed 48 mph    
Visibility 7 miles    
Events Rain    
T = Trace of Precipitation, MM = Missing Value Source: NWS Daily Summary

Daily Weather History Graph

Daily Weather History Graph

Search for Another Location

Airport:

Trip Planner

Search our weather history database for the weather conditions in past years. The results will help you decide how hot, cold, wet, or windy it might be!

Date:

Astronomy

Oct. 29, 2012 Rise Set
Actual Time 7:47 AM EDT 6:20 PM EDT
Civil Twilight 7:19 AM EDT 6:48 PM EDT
Nautical Twilight 6:47 AM EDT 7:20 PM EDT
Astronomical Twilight 6:15 AM EDT 7:52 PM EDT
Moon 6:11 PM EDT (10/29) 7:36 AM EDT (10/29)
Length of Visible Light 11h 29m
Length of Day
10h 32m
Full, 100% of the Moon is Illuminated
Oct 29
Full
Oct 29
Full
Nov 6
Last Quarter
Nov 13
New
Nov 20
First Quarter

Hourly Weather History & Observations

Time (EDT) Temp. Windchill Dew Point Humidity Pressure Visibility Wind Dir Wind Speed Gust Speed Precip Events Conditions
12:28 AM 42.8 °F 37.5 °F 39.2 °F 87% 29.83 in 10.0 mi North 9.2 mph 18.4 mph 0.00 in   Light Drizzle
12:51 AM 42.8 °F 38.0 °F 39.2 °F 87% 29.83 in 7.0 mi NNW 8.1 mph - N/A   Light Drizzle
12:58 AM 42.8 °F 36.6 °F 39.2 °F 87% 29.83 in 6.0 mi North 11.5 mph - 0.00 in   Light Drizzle
1:51 AM 42.1 °F 35.2 °F 39.9 °F 92% 29.86 in 6.0 mi North 12.7 mph - 0.05 in Rain Light Rain
2:30 AM 42.8 °F 35.8 °F 39.2 °F 87% 29.80 in 10.0 mi NNW 13.8 mph - 0.04 in Rain Light Rain
2:41 AM 42.8 °F 37.0 °F 39.2 °F 87% 29.80 in 10.0 mi NNW 10.4 mph - 0.04 in Rain Light Rain
2:51 AM 42.1 °F 35.7 °F 39.9 °F 92% 29.84 in 10.0 mi NNW 11.5 mph - 0.04 in Rain Light Rain
3:51 AM 42.8 °F 35.4 °F 39.2 °F 87% 29.78 in 10.0 mi NNW 15.0 mph - N/A Rain Light Rain
4:51 AM 42.1 °F 33.9 °F 39.0 °F 89% 29.81 in 6.0 mi North 17.3 mph 24.2 mph 0.00 in   Light Drizzle
5:51 AM 42.1 °F 34.9 °F 39.0 °F 89% 29.81 in 6.0 mi North 13.8 mph - 0.02 in Rain Light Rain
6:51 AM 41.0 °F 33.1 °F 39.0 °F 93% 29.79 in 4.0 mi North 15.0 mph - 0.02 in Rain Light Rain
7:51 AM 41.0 °F 33.5 °F 39.0 °F 93% 29.79 in 7.0 mi NNW 13.8 mph - 0.05 in Rain Light Rain
8:27 AM 41.0 °F 33.1 °F 39.2 °F 93% 29.74 in 9.0 mi NNW 15.0 mph - 0.02 in Rain Light Rain
8:51 AM 41.0 °F 32.2 °F 37.9 °F 89% 29.77 in 8.0 mi NNW 18.4 mph - 0.02 in Rain Light Rain
9:51 AM 41.0 °F 32.5 °F 39.2 °F 93% 29.72 in 7.0 mi NNW 17.3 mph - N/A Rain Light Rain
10:51 AM 42.1 °F 33.6 °F 39.0 °F 89% 29.73 in 5.0 mi NNW 18.4 mph - 0.03 in Rain Light Rain
11:51 AM 42.1 °F 32.8 °F 39.0 °F 89% 29.73 in 7.0 mi NNW 21.9 mph 28.8 mph 0.04 in Rain Light Rain
12:51 PM 42.1 °F 33.3 °F 39.0 °F 89% 29.69 in 7.0 mi NNW 19.6 mph 27.6 mph 0.04 in Rain Light Rain
1:02 PM 42.8 °F 34.8 °F 39.2 °F 87% 29.65 in 7.0 mi NNW 17.3 mph - 0.00 in Rain Light Rain
1:51 PM 42.1 °F 33.3 °F 39.0 °F 89% 29.65 in 6.0 mi NNW 19.6 mph - 0.05 in Rain Light Rain
2:37 PM 42.8 °F 34.3 °F 39.2 °F 87% 29.59 in 7.0 mi NNW 19.6 mph - 0.06 in Rain Light Rain
2:51 PM 42.1 °F 33.6 °F 39.0 °F 89% 29.61 in 6.0 mi NNW 18.4 mph 26.5 mph 0.06 in Rain Light Rain
3:51 PM 41.0 °F 30.9 °F 39.0 °F 93% 29.55 in 6.0 mi NW 24.2 mph 35.7 mph 0.08 in Rain Light Rain
4:51 PM 41.0 °F 30.7 °F 37.4 °F 87% 29.48 in 7.0 mi NNW 25.3 mph 39.1 mph N/A Rain Light Rain
5:51 PM 41.0 °F 31.1 °F 37.9 °F 89% 29.48 in 6.0 mi NW 23.0 mph 35.7 mph 0.08 in Rain Light Rain
6:51 PM 42.8 °F 33.1 °F 39.2 °F 87% 29.40 in 7.0 mi NW 25.3 mph 35.7 mph N/A Rain Light Rain
7:51 PM 42.1 °F 32.6 °F 37.9 °F 85% 29.41 in 6.0 mi NNW 23.0 mph 36.8 mph 0.09 in Rain Rain
8:51 PM 39.9 °F 28.4 °F 37.0 °F 89% 29.37 in 5.0 mi NNW 29.9 mph 36.8 mph 0.15 in Rain Rain
9:51 PM 39.0 °F 29.0 °F 36.0 °F 89% 29.33 in 5.0 mi NNW 20.7 mph 36.8 mph 0.14 in Rain Rain
10:51 PM 39.0 °F 28.5 °F 36.0 °F 89% 29.26 in 5.0 mi NW 23.0 mph 39.1 mph 0.15 in Rain Rain
11:51 PM 39.0 °F 26.8 °F 35.1 °F 86% 29.18 in 3.0 mi NW 32.2 mph 46.0 mph 0.20 in Rain Rain